Location: Beaurecueil
(43.5122°N, 5.5450°E)
Time: 08:17:47
(UTC+00:00)

Cosmos 1939 Rocket - Pass Details

Date: 25 January 2021
Orbit: 531 x 585 km, 97.4° (Epoch: 04 March)

Event Time Altitude Azimuth Distance (km) Brightness Sun altitude
Rises 17:29:04 0° 163° (SSE) 2,787 6.4 -9.1°
Reaches altitude 10° 17:31:13 10° 163° (SSE) 1,887 5.6 -9.5°
Maximum altitude 17:35:19 80° 77° (ENE) 588 2.8 -10.2°
Drops below altitude 10° 17:39:23 10° 350° (N) 1,876 5.5 -10.9°
Sets 17:41:31 0° 349° (N) 2,769 6.4 -11.3°
